www.pogodaiklimat.ru

Погода и климат >> Архив погоды >> Россия >> Якутия >> Сухана


ПОГОДА в Сухане

  • Прогноз погоды в Сухане
  • Монитор погоды в Сухане

АРХИВ ПОГОДЫ в Сухане

Время (UTC), дата Ветер
(напр.,м/с)
 
Видим.   Явления Облачность Т
(С)
Тd
(С)
f
(%)
Тe
(С)
Тes
(С)
Комфортность P
(гПа)
Po
(гПа)
Тmin
(С)
Tmax
(С)
R
(мм)
R24
(мм)
S
(см)
03 9.07 В 1 50 км 3/3 600 м
[Cu Sc Ci fib]
+22.3 +12.5 54 +25 +33 комфорт 1001.3 992.5
06 9.07 Ю 1 50 км 4/3 600 м
[Cu med, cong Ci fib]
+25.2 +13.2 47 +27 +35 жарко 999.9 991.1
09 9.07 Ю 1 50 км 6/4 600 м
[Cb cap Ci ing]
+26.3 +12.5 42 +28 +31 жарко 998.3 989.7
12 9.07 Ю 1 50 км 9/8 600 м
[Cb cap Ci fib]
+26.3 +12.7 43 +28 +28 жарко 997.9 989.3 +27.4
15 9.07 С 2 50 км {гроза, ливн. осадки} 6/6 600 м
[Cb cap]
+18.4 +15.7 84 +20 +20 999.7 990.7
18 9.07 штиль 0 50 км {гроза, ливн. осадки} 4/3 1000 м
[Sc Ci ing]
+14.4 +14.2 99 +14 +14 1000.8 991.7
21 9.07 штиль 0 50 км 5/0
[Ci fib]
+14.8 +13.3 91 +14 +16 1001.6 992.5
00 10.07 штиль 0 50 км 4/0
[Ci fib]
+20.3 +17.9 86 +23 +31 комфорт 1002.2 993.4 +14.1 0.5
03 10.07 Ю 2 50 км 3/3 600 м
[Cu med, cong]
+25.2 +11.0 41 +26 +33 жарко 1002.1 993.3
06 10.07 Ю 2 50 км 6/6 600 м
[Cb cap]
+26.2 +11.5 40 +27 +31 жарко 1002.2 993.5
09 10.07 В 1 50 км 8/6 600 м
[Cb cap Ci fib]
+26.8 +10.7 36 +28 +29 жарко 1003.2 994.5
12 10.07 В 2 10 км гроза, ливневой дождь 10/10 600 м
[Cb cap]
+18.8 +14.1 74 +20 +20 1005.9 996.9 +26.8 2
15 10.07 С 1 50 км {гроза, ливн. осадки} 4/3 1000 м
[Sc Ci fib]
+16.0 +15.0 94 +17 +17 1006.7 997.7
18 10.07 штиль 0 50 км туман поземный {гроза, ливн. осадки} 4/0
[Ac trans]
+13.6 +13.0 96 +13 +13 1008.0 998.9
21 10.07 штиль 0 200 м туман 4/0
[Ac trans]
+14.2 +13.8 97 +14 +15 1010.1 1000.9
00 11.07 Ю 1 50 км {туман} 6/3 1000 м
[Sc Ac trans]
+17.0 +15.1 89 +18 +21 1011.0 1001.9 +13.6 3
03 11.07 С 1 50 км 6/0
[Ac trans Ci fib]
+22.1 +12.6 55 +25 +34 комфорт 1012.7 1003.8
06 11.07 В 1 50 км 8/3 600 м
[Cu Sc Ac trans Ci fib]
+23.1 +12.2 50 +26 +31 жарко 1011.2 1002.3
09 11.07 С 1 50 км 10/4 1000 м
[Sc Cs]
+21.8 +14.7 64 +25 +28 комфорт 1010.8 1001.9
12 11.07 В 1 50 км 8/3
[Cb calv Cs]
+22.3 +13.5 57 +25 +26 комфорт 1009.6 1000.7 +23.4
15 11.07 С 1 50 км 8/0
[Ac trans Cs]
+19.9 +14.4 71 +23 +23 комфорт 1008.3 999.3
18 11.07 Ю 1 50 км 10/3 1000 м
[Sc Cs]
+20.6 +13.6 64 +24 +24 комфорт 1007.1 998.1
21 11.07 Ю 3 50 км 10/3 1000 м
[Sc Cs]
+21.9 +12.6 56 +24 +25 комфорт 1005.8 997.0
00 12.07 Ю 2 20 км дым 10/3 1000 м
[Sc Cs]
+22.0 +13.7 59 +25 +28 комфорт 1005.7 996.9 +19.9
03 12.07 З 2 20 км дым 10/3 600 м
[Cb cap Cs]
+24.0 +15.4 59 +27 +33 жарко 1005.8 997.0
06 12.07 З 2 20 км дым 10/10 600 м
[Cb cap]
+24.5 +14.2 53 +27 +27 жарко 1006.6 997.8
09 12.07 С 2 20 км дым 8/6 600 м
[Cb cap Cs]
+23.1 +14.1 57 +27 +28 душно 1007.1 998.3
12 12.07 С 2 50 км 8/6 600 м
[Cb cap Cs]
+16.6 +13.0 79 +17 +17 1010.0 1000.9 +24.5
15 12.07 С 1 50 км 10/10 600 м
[Cb cap]
+14.8 +11.4 80 +15 +15 1011.8 1002.6
18 12.07 С 1 50 км 10/10 1000 м
[Sc]
+13.0 +10.7 86 +13 +13 1013.3 1004.1
21 12.07 С 1 50 км 5/3 1000 м
[Sc Cs]
+12.8 +9.4 80 +13 +14 1013.5 1004.3
00 13.07 С 1 50 км 5/3 600 м
[Cu hum Cs]
+15.0 +10.0 72 +16 +20 1013.3 1004.1 +12.0
03 13.07 Ю 1 50 км 8/3 600 м
[Cu med, cong Cs]
+18.0 +9.0 56 +19 +26 1011.8 1002.7
06 13.07 штиль 0 50 км 10/0
[As trans Cs]
+18.7 +9.9 57 +19 +27 1010.4 1001.3
09 13.07 Ю 1 50 км 10/0
[Ac As Cs]
+18.7 +11.2 62 +20 +23 1009.3 1000.2
12 13.07 Ю 1 50 км 4/4 600 м
[Cu Sc]
+19.2 +11.5 61 +21 +22 комфорт 1008.4 999.4 +19.3
15 13.07 Ю 1 50 км 10/10 1000 м
[Sc]
+16.2 +12.6 79 +17 +17 1008.3 999.3
18 13.07 С 1 50 км {дождь} 10/10 1000 м
[Sc]
+12.6 +11.3 92 +13 +13 1009.4 1000.2
21 13.07 СЗ 1 50 км 6/4 1000 м
[Sc Ci fib]
+13.0 +11.9 93 +13 +14 1009.8 1000.6
00 14.07 С 1 50 км 8/0
[Ac trans Ci fib]
+16.5 +11.3 71 +17 +22 1011.0 1001.9 +12.6 2
03 14.07 В 1 50 км 9/9 600 м
[Cb cap]
+18.6 +11.3 62 +20 +21 1012.0 1002.9
06 14.07 С 1 50 км 9/9 600 м
[Cb cap]
+19.4 +12.6 65 +22 +23 комфорт 1013.2 1004.1
09 14.07 С 1 50 км 8/8 600 м
[Cb cap]
+19.5 +10.4 56 +22 +23 комфорт 1014.1 1005.0
12 14.07 В 1 50 км 4/4 600 м
[Cb cap]
+19.3 +10.9 58 +21 +22 комфорт 1015.0 1005.9 +20.0
15 14.07 штиль 0 50 км 3/3 1000 м
[Sc]
+15.6 +10.3 71 +15 +15 1016.1 1006.9
18 14.07 Ю 1 50 км 3/3 1000 м
[Sc]
+9.1 +7.4 89 +8 +8 1016.8 1007.4
21 14.07 штиль 0 50 км 3/0
[Ac trans]
+11.8 +9.8 88 +11 +13 1017.9 1008.7
00 15.07 С 2 50 км ясно +16.0 +6.1 52 +16 +22 1018.5 1009.3 +9.1
03 15.07 С 2 50 км 1/0
[Ci fib]
+17.3 +3.8 41 +18 +27 1018.5 1009.4
06 15.07 З 2 50 км 5/1 600 м
[Cu hum Ci fib]
+19.3 +5.0 39 +20 +28 1019.3 1010.1
09 15.07 С 2 50 км 5/1 600 м
[Cu hum Ci fib]
+20.8 +5.5 37 +22 +26 комфорт 1016.9 1007.8
12 15.07 С 1 50 км 3/0
[Ci fib]
+20.8 +5.8 38 +23 +24 комфорт 1016.6 1007.5 +21.5
15 15.07 С 1 50 км ясно +14.4 +7.3 62 +15 +15 1016.9 1007.7
18 15.07 С 1 50 км 4/0
[Ac As]
+8.8 +5.8 81 +8 +8 1017.1 1007.7
21 15.07 С 1 50 км 8/8 1000 м
[Sc]
+9.8 +7.0 83 +9 +10 1017.1 1007.7

 

Местоположение метеостанции Сухана (Якутия, Россия): широта 68.62 долгота 118.30 высота над уровнем моря 77 м.

В архиве по умолчанию представлена погода в Сухане за последнюю неделю. Архивные данные за месяц целиком и за предыдущие месяцы, начиная с января 2011 года, Вы можете получить, выбрав интересующий диапазон дат из раскрывающегося списка и нажав кнопку "Ввод!".


*Определитесь, кто Вы:
робот инопланетянин человек

Внимание! Время в таблицах - всемирное. Для получения местного времени необходимо прибавить поправку, которая равна 9 ч.

Смотрите также архив погоды в соседних городах и на ближайших метеорологических станциях:

Погода в Джарджане (Якутия, Россия) (231 км)
Погода в Оленеке (Якутия, Россия) (240 км)
Погода в Джалинде (Якутия, Россия) (241 км)
Погода в Эйке (Якутия, Россия) (291 км)
Погода в Жиганске (Якутия, Россия) (294 км)
Погода в Шелагонцах (Якутия, Россия) (316 км)
Погода в Полярном (Якутия, Россия) (326 км)
Погода в Саскылахе (Якутия, Россия) (406 км)
Погода в Тюмяти (Якутия, Россия) (415 км)
Погода в Айхале (Якутия, Россия) (419 км)

Пояснения к столбцам:

Ветер - указаны скорость ветра в м/с - средняя за 10 мин, порывы в срок и между сроками (в фигурных скобках) и направление, откуда дует ветер: С - северный, СВ - северо-восточный, В - восточный, ЮВ - юго-восточный, Ю - южный, ЮЗ - юго-западный, З - западный, СЗ - северо-западный.
Видимость - горизонтальная дальность видимости в метрах или километрах. При видимости от 1 до 10 км при отсутствии осадков обычно наблюдается дымка, при ухудшении видимости до 1 км и менее - туман. В сухую погоду видимость может ухудшаться дымом, пылью или мглою.
Явления - указаны атмосферные явления, наблюдавшиеся в срок или в последний час перед сроком; фигурными скобками обозначены явления, наблюдавшиеся между сроками (за 1-3 часа до срока); квадратными скобками обозначены град или гололедные отложения с указанием их диаметра в мм.
Облачность - указаны через наклонную черту общая и нижняя облачность в баллах и высота нижней границы облаков в метрах; квадратными скобками обозначены формы облаков: Ci - перистые, Cs - перисто-слоистые, Cc - перисто-кучевые, Ac - высококучевые, As - высокослоистые, Sc - слоисто-кучевые, Ns - слоисто-дождевые, Cu - кучевые, Cb - кучево-дождевые. Подробнее классификацию облаков см. в Атласе облаков (PDF).
T - Температура воздуха - температура, измеренная на высоте 2 м над землей.
Td - Температура точки росы - температура, при понижении до которой содержащийся в воздухе водяной пар достигнет насыщения.
f - Относительная влажность воздуха - влажноcть воздуха, измеренная на высоте 2 м над землей.
Te - Эффективная температура - температура, которую ощущает одетый по сезону человек в тени. Характеристика душности погоды. При расчете учитывается влияние влажности воздуха и скорости ветра на теплоощущения человека.
Tes - Эффективная температура на солнце - температура, которую ощущает человек, с поправкой на солнечный нагрев. Характеристика знойности погоды. Зависит от высоты солнца над горизонтом, облачности и скорости ветра. Ночью, в пасмурную погоду, а также при ветре 12 м/с и более поправка равна нулю.
P - Атмосферное давление - приведенное к уровню моря атмосферное давление.
Po - Атмосферное давление - измеренное на уровне метеостанции атмосферное давление.
Tmin - Минимальная температура - минимум температуры воздуха на высоте 2 м над землей.
Tmax - Максимальная температура - максимум температуры воздуха на высоте 2 м над землей.
R - Количество осадков - Количество выпавших осадков за период времени, мм. При наведении курсора мыши на число - период времени, за который выпало указанное количество осадков.
R24 - Количество осадков - Количество выпавших осадков за 24 часа, мм.
S - Снежный покров - Высота снежного покрова, см. При наведении курсора мыши на число - состояние снежного покрова и степень покрытия местности в баллах.